Weather History for KLGA - January, 2013

Change the Weather History Date:

Sunday, January 20, 2013

  Actual Average Record
Temperature  
Mean Temperature 43 °F 33 °F  
Max Temperature 54 °F 39 °F 61 °F (1951)
Min Temperature 31 °F 26 °F 0 °F (1994)
Degree Days  
Heating Degree Days 22 32  
Month to date heating degree days 509 636  
Since 1 July heating degree days 1961 2242  
Cooling Degree Days 0 0  
Month to date cooling degree days 0 0  
Year to date cooling degree days 0 0  
Moisture  
Dew Point 21 °F    
Average Humidity 35    
Maximum Humidity 53    
Minimum Humidity 16    
Precipitation  
Precipitation 0.00 in 0.10 in 1.41 in (1995)
Month to date precipitation 1.38 2.08  
Year to date precipitation 1.38 2.08  
Snow  
Snow 0.00 in 0.30 in 9.80 in (1978)
Month to date snowfall 0.1 4.8  
Since 1 July snowfall 2.1 10.3  
Snow Depth 0.00 in    
Sea Level Pressure  
Sea Level Pressure 29.83 in    
Wind  
Wind Speed 17 mph (WSW)    
Max Wind Speed 35 mph    
Max Gust Speed 48 mph    
Visibility 10 miles    
Events      
T = Trace of Precipitation, MM = Missing Value Source: NWS Daily Summary

Daily Weather History Graph

Daily Weather History Graph

Search for Another Location

Airport or City:

Trip Planner

Search our weather history database for the weather conditions in past years. The results will help you decide how hot, cold, wet, or windy it might be!

Date:

Astronomy

Jan. 20, 2013 Rise Set
Actual Time 7:14 AM EST 4:58 PM EST
Civil Twilight 6:45 AM EST 5:28 PM EST
Nautical Twilight 6:11 AM EST 6:02 PM EST
Astronomical Twilight 5:39 AM EST 6:34 PM EST
Moon 11:58 AM EST (1/20) 1:44 AM EST (1/20)
Length of Visible Light 10h 43m
Length of Day
9h 43m
Waxing Gibbous, 66% of the Moon is Illuminated
Jan 20
Waxing Gibbous
Jan 26
Full
Feb 3
Last Quarter
Feb 10
New
Feb 17
First Quarter

Hourly Weather History & Observations

Time (EST) Temp. Windchill Dew Point Humidity Pressure Visibility Wind Dir Wind Speed Gust Speed Precip Events Conditions
12:51 AM 44.1 °F 37.4 °F 26.1 °F 49% 29.89 in 10.0 mi SSW 13.8 mph 20.7 mph N/A   Partly Cloudy
1:51 AM 42.1 °F 35.7 °F 27.0 °F 55% 29.87 in 10.0 mi SSW 11.5 mph - N/A   Partly Cloudy
2:51 AM 42.1 °F 37.1 °F 27.0 °F 55% 29.86 in 10.0 mi SW 8.1 mph - N/A   Partly Cloudy
3:51 AM 42.1 °F 36.6 °F 27.0 °F 55% 29.83 in 10.0 mi SW 9.2 mph - N/A   Clear
4:51 AM 42.1 °F 35.7 °F 27.0 °F 55% 29.79 in 10.0 mi SSW 11.5 mph - N/A   Clear
5:51 AM 42.1 °F 35.2 °F 27.0 °F 55% 29.77 in 10.0 mi SSW 12.7 mph 18.4 mph N/A   Clear
6:51 AM 42.1 °F 35.7 °F 27.0 °F 55% 29.75 in 10.0 mi SSW 11.5 mph - N/A   Partly Cloudy
7:51 AM 43.0 °F 35.4 °F 27.0 °F 53% 29.74 in 10.0 mi SW 16.1 mph 21.9 mph N/A   Scattered Clouds
8:51 AM 44.6 °F 37.8 °F 26.6 °F 49% 29.75 in 10.0 mi SW 15.0 mph 21.9 mph N/A   Scattered Clouds
9:51 AM 48.0 °F - 27.0 °F 44% 29.76 in 10.0 mi SW 17.3 mph 20.7 mph N/A   Scattered Clouds
10:51 AM 52.0 °F - 27.0 °F 38% 29.74 in 10.0 mi WSW 12.7 mph 21.9 mph N/A   Scattered Clouds
11:51 AM 53.1 °F - 26.1 °F 35% 29.70 in 10.0 mi West 21.9 mph 38.0 mph N/A   Mostly Cloudy
12:51 PM 54.0 °F - 23.0 °F 30% 29.69 in 10.0 mi West 21.9 mph 39.1 mph N/A   Mostly Cloudy
1:51 PM 53.1 °F - 21.0 °F 29% 29.70 in 10.0 mi West 25.3 mph 35.7 mph N/A   Mostly Cloudy
2:51 PM 53.1 °F - 17.1 °F 24% 29.73 in 10.0 mi WNW 19.6 mph 36.8 mph N/A   Mostly Cloudy
3:51 PM 51.1 °F - 7.0 °F 17% 29.77 in 10.0 mi West 25.3 mph 40.3 mph N/A   Mostly Cloudy
4:51 PM 48.9 °F - 9.0 °F 20% 29.81 in 10.0 mi WNW 27.6 mph 38.0 mph N/A   Scattered Clouds
5:51 PM 46.0 °F 37.4 °F 12.0 °F 25% 29.86 in 10.0 mi WNW 25.3 mph 32.2 mph N/A   Scattered Clouds
6:51 PM 42.1 °F 33.1 °F 18.0 °F 38% 29.90 in 10.0 mi WNW 20.7 mph 29.9 mph N/A   Clear
7:51 PM 39.0 °F 29.6 °F 16.0 °F 39% 29.94 in 10.0 mi WNW 18.4 mph 26.5 mph N/A   Clear
8:51 PM 37.0 °F 27.0 °F 14.0 °F 39% 29.98 in 10.0 mi NW 18.4 mph 27.6 mph N/A   Clear
9:51 PM 35.1 °F 25.2 °F 12.9 °F 40% 30.00 in 10.0 mi NW 16.1 mph 24.2 mph N/A   Clear
10:51 PM 33.1 °F 23.4 °F 12.0 °F 42% 30.02 in 10.0 mi WNW 13.8 mph - N/A   Clear
11:51 PM 30.9 °F 19.8 °F 10.9 °F 43% 30.04 in 10.0 mi NW 16.1 mph 25.3 mph N/A   Clear